TimeCDT,TemperatureF,Dew PointF,Humidity,Sea Level PressureIn,VisibilityMPH,Wind Direction,Wind SpeedMPH,Gust SpeedMPH,PrecipitationIn,Events,Conditions,WindDirDegrees,DateUTC
12:13 AM,55.4,50.0,82,29.90,10.0,North,3.5,-,N/A,,Clear,350,2013-07-20 05:13:00
12:33 AM,55.4,48.2,77,29.91,10.0,Calm,Calm,-,N/A,,Clear,0,2013-07-20 05:33:00
12:53 AM,53.6,48.2,82,29.91,10.0,Calm,Calm,-,N/A,,Clear,0,2013-07-20 05:53:00
1:13 AM,53.6,48.2,82,29.92,10.0,Calm,Calm,-,N/A,,Clear,0,2013-07-20 06:13:00
1:33 AM,51.8,48.2,88,29.93,10.0,Calm,Calm,-,N/A,,Clear,0,2013-07-20 06:33:00
1:53 AM,50.0,48.2,94,29.93,10.0,Calm,Calm,-,N/A,,Clear,0,2013-07-20 06:53:00
2:13 AM,50.0,46.4,87,29.93,1.2,Calm,Calm,-,N/A,,Mist,0,2013-07-20 07:13:00
2:33 AM,48.2,46.4,93,29.93,10.0,Calm,Calm,-,N/A,,Scattered Clouds,0,2013-07-20 07:33:00
2:53 AM,48.2,46.4,93,29.94,10.0,Calm,Calm,-,N/A,,Clear,0,2013-07-20 07:53:00
3:13 AM,48.2,46.4,93,29.93,10.0,North,3.5,-,N/A,,Clear,350,2013-07-20 08:13:00
3:33 AM,50.0,46.4,87,29.94,10.0,North,3.5,-,N/A,,Clear,350,2013-07-20 08:33:00
3:53 AM,50.0,46.4,87,29.94,10.0,North,3.5,-,N/A,,Clear,350,2013-07-20 08:53:00
4:13 AM,48.2,44.6,87,29.94,10.0,Calm,Calm,-,N/A,,Clear,0,2013-07-20 09:13:00
4:33 AM,48.2,44.6,87,29.96,10.0,Calm,Calm,-,N/A,,Clear,0,2013-07-20 09:33:00
4:53 AM,46.4,44.6,93,29.95,10.0,North,4.6,-,N/A,,Clear,360,2013-07-20 09:53:00
5:13 AM,46.4,44.6,93,29.96,10.0,North,3.5,-,N/A,,Clear,10,2013-07-20 10:13:00
5:33 AM,46.4,44.6,93,29.97,10.0,Calm,Calm,-,N/A,,Clear,0,2013-07-20 10:33:00
5:53 AM,44.6,42.8,93,29.97,10.0,Calm,Calm,-,N/A,,Clear,0,2013-07-20 10:53:00
6:13 AM,46.4,44.6,93,29.98,10.0,Calm,Calm,-,N/A,,Clear,0,2013-07-20 11:13:00
6:33 AM,46.4,44.6,93,29.99,10.0,Calm,Calm,-,N/A,,Clear,0,2013-07-20 11:33:00
6:53 AM,46.4,44.6,93,29.99,10.0,Calm,Calm,-,N/A,,Clear,0,2013-07-20 11:53:00
7:13 AM,48.2,46.4,93,30.01,10.0,Calm,Calm,-,N/A,,Clear,0,2013-07-20 12:13:00
7:33 AM,51.8,48.2,88,30.01,10.0,North,3.5,-,N/A,,Clear,360,2013-07-20 12:33:00
7:53 AM,53.6,48.2,82,30.02,10.0,North,3.5,-,N/A,,Clear,10,2013-07-20 12:53:00
8:13 AM,55.4,48.2,77,30.02,10.0,NNE,3.5,-,N/A,,Clear,30,2013-07-20 13:13:00
8:33 AM,57.2,48.2,72,30.02,10.0,North,4.6,-,N/A,,Clear,10,2013-07-20 13:33:00
8:53 AM,59.0,48.2,67,30.03,10.0,NE,5.8,-,N/A,,Clear,50,2013-07-20 13:53:00
9:13 AM,60.8,46.4,59,30.03,10.0,NE,6.9,-,N/A,,Clear,40,2013-07-20 14:13:00
9:33 AM,60.8,46.4,59,30.03,10.0,NE,6.9,-,N/A,,Clear,40,2013-07-20 14:33:00
9:53 AM,60.8,46.4,59,30.03,10.0,NE,5.8,-,N/A,,Clear,40,2013-07-20 14:53:00
10:13 AM,62.6,46.4,55,30.04,10.0,NNE,3.5,-,N/A,,Clear,20,2013-07-20 15:13:00
10:33 AM,62.6,46.4,55,30.04,10.0,NNE,3.5,-,N/A,,Clear,20,2013-07-20 15:33:00
10:53 AM,64.4,44.6,49,30.03,10.0,ENE,6.9,-,N/A,,Clear,60,2013-07-20 15:53:00
11:13 AM,64.4,46.4,52,30.03,10.0,North,8.1,-,N/A,,Clear,360,2013-07-20 16:13:00
11:33 AM,64.4,46.4,52,30.03,10.0,Calm,Calm,-,N/A,,Clear,0,2013-07-20 16:33:00
11:53 AM,66.2,46.4,49,30.03,10.0,North,4.6,-,N/A,,Scattered Clouds,10,2013-07-20 16:53:00
12:13 PM,66.2,46.4,49,30.03,10.0,NNE,3.5,-,N/A,,Clear,20,2013-07-20 17:13:00
12:33 PM,66.2,46.4,49,30.03,10.0,North,3.5,-,N/A,,Clear,10,2013-07-20 17:33:00
12:53 PM,66.2,46.4,49,30.03,10.0,NNE,5.8,-,N/A,,Clear,30,2013-07-20 17:53:00
1:13 PM,66.2,44.6,46,30.03,10.0,NNW,3.5,-,N/A,,Clear,330,2013-07-20 18:13:00
1:33 PM,68.0,46.4,46,30.02,10.0,NNE,5.8,-,N/A,,Scattered Clouds,30,2013-07-20 18:33:00
1:53 PM,68.0,46.4,46,30.01,10.0,NNE,5.8,-,N/A,,Scattered Clouds,20,2013-07-20 18:53:00
2:13 PM,69.8,46.4,43,30.01,10.0,Calm,Calm,-,N/A,,Scattered Clouds,0,2013-07-20 19:13:00
2:33 PM,68.0,46.4,46,30.01,10.0,NNE,3.5,-,N/A,,Scattered Clouds,30,2013-07-20 19:33:00
2:53 PM,69.8,46.4,43,30.01,10.0,NNE,5.8,-,N/A,,Clear,20,2013-07-20 19:53:00
3:13 PM,66.2,46.4,49,30.00,10.0,NE,3.5,-,N/A,,Clear,50,2013-07-20 20:13:00
3:33 PM,68.0,46.4,46,30.01,10.0,NNE,4.6,-,N/A,,Scattered Clouds,30,2013-07-20 20:33:00
3:53 PM,69.8,46.4,43,30.00,10.0,Calm,Calm,-,N/A,,Scattered Clouds,0,2013-07-20 20:53:00
4:13 PM,69.8,46.4,43,30.00,10.0,East,5.8,-,N/A,,Scattered Clouds,80,2013-07-20 21:13:00
4:33 PM,69.8,46.4,43,30.00,10.0,North,3.5,-,N/A,,Scattered Clouds,350,2013-07-20 21:33:00
4:53 PM,69.8,48.2,46,30.00,10.0,NE,9.2,-,N/A,,Mostly Cloudy,50,2013-07-20 21:53:00
5:13 PM,69.8,48.2,46,30.00,10.0,ENE,3.5,-,N/A,,Scattered Clouds,70,2013-07-20 22:13:00
5:33 PM,64.4,46.4,52,30.00,10.0,Calm,Calm,-,N/A,,Scattered Clouds,0,2013-07-20 22:33:00
5:53 PM,69.8,46.4,43,30.00,10.0,ENE,5.8,-,N/A,,Clear,60,2013-07-20 22:53:00
6:13 PM,69.8,48.2,46,29.99,10.0,NNE,6.9,-,N/A,,Scattered Clouds,30,2013-07-20 23:13:00
6:33 PM,68.0,48.2,49,29.99,10.0,NNE,4.6,-,N/A,,Clear,30,2013-07-20 23:33:00
6:53 PM,66.2,46.4,49,29.99,10.0,NE,3.5,-,N/A,,Clear,50,2013-07-20 23:53:00
7:13 PM,66.2,48.2,52,29.99,10.0,NE,3.5,-,N/A,,Clear,50,2013-07-21 00:13:00
7:33 PM,64.4,50.0,59,29.99,10.0,Calm,Calm,-,N/A,,Clear,0,2013-07-21 00:33:00
7:53 PM,64.4,50.0,59,29.99,10.0,NE,3.5,-,N/A,,Clear,50,2013-07-21 00:53:00
8:13 PM,62.6,51.8,68,29.99,10.0,Calm,Calm,-,N/A,,Clear,0,2013-07-21 01:13:00
8:33 PM,60.8,51.8,72,29.99,10.0,Calm,Calm,-,N/A,,Clear,0,2013-07-21 01:33:00
8:53 PM,59.0,51.8,77,29.99,10.0,Calm,Calm,-,N/A,,Clear,0,2013-07-21 01:53:00
9:13 PM,57.2,51.8,82,30.00,10.0,NNE,3.5,-,N/A,,Clear,30,2013-07-21 02:13:00
9:33 PM,55.4,51.8,88,30.00,10.0,NNE,3.5,-,N/A,,Clear,30,2013-07-21 02:33:00
9:53 PM,55.4,50.0,82,30.01,10.0,NNE,3.5,-,N/A,,Clear,30,2013-07-21 02:53:00
10:13 PM,55.4,48.2,77,30.01,10.0,NE,3.5,-,N/A,,Clear,40,2013-07-21 03:13:00
10:33 PM,53.6,48.2,82,30.01,10.0,Calm,Calm,-,N/A,,Clear,0,2013-07-21 03:33:00
10:53 PM,51.8,48.2,88,30.01,10.0,Calm,Calm,-,N/A,,Clear,0,2013-07-21 03:53:00
11:13 PM,51.8,48.2,88,30.01,10.0,Calm,Calm,-,N/A,,Clear,0,2013-07-21 04:13:00
11:33 PM,51.8,48.2,88,30.01,10.0,Calm,Calm,-,N/A,,Clear,0,2013-07-21 04:33:00
11:53 PM,50.0,46.4,87,30.01,10.0,Calm,Calm,-,N/A,,Clear,0,2013-07-21 04:53:00